Kosmos-87

operational
NORAD ID: 1585 Int'l Des: 1965-073 Owner: OKB10 Country: SU
LEO

关于 Kosmos-87

正在加载描述...

实时位置

正在加载3D地球...

即将过境

高度历史

Altitude vs Time

uPlot chart will show altitude changes over time

两行轨道根数

1 1585U 65073B 26061.52326737 -.00000110 00000-0 -98465-4 0 9990
2 1585 56.0601 210.4324 0202100 243.6049 187.4369 12.47461773752440
Epoch: Mar 2, 2026 • Age: 34 hours

当前状态

高度 1639.8 km
速度 6.99 km/s
星下点 50.84°N, 43.37°W
类型 other

大型星座

Loading constellations...